DW4847 Weather Reports


Display with metric or nautical units.
time (UTC)temp
F
wind
direction
speed
MPH
gust
MPH
rain 1hr
in
rain 24hr
in
rain mn
in
humidity
%
barometer
mb
20260831033032 63 302 1.0 8.0 0.00 0.05 0.05 92 1019.0
20260831032555 63 303 2.0 8.0 0.00 0.05 0.05 92 1019.1
20260831032052 63 239 2.0 4.0 0.00 0.05 0.05 92 1019.2
20260831031552 63 317 1.0 3.0 0.00 0.05 0.05 92 1019.2
20260831031053 63 271 0.0 3.0 0.00 0.05 0.05 93 1019.1
20260831030552 63 250 0.0 2.0 0.00 0.05 0.05 93 1019.1
20260831030059 63 294 0.0 2.0 0.00 0.05 0.05 93 1019.2
20260831025601 63 258 1.0 2.0 0.00 0.05 0.05 93 1019.2
20260831025039 63 273 1.0 2.0 0.00 0.05 0.05 93 1019.2
20260831024525 63 234 1.0 4.0 0.00 0.05 0.05 93 1019.3
20260831024027 63 300 1.0 4.0 0.00 0.05 0.05 93 1019.4
20260831023531 63 241 0.0 3.0 0.00 0.05 0.05 93 1019.4
20260831023053 63 286 1.0 2.0 0.00 0.05 0.05 93 1019.3
20260831022552 63 306 0.0 2.0 0.00 0.05 0.05 93 1019.2
20260831022054 63 321 0.0 2.0 0.00 0.05 0.05 94 1019.3
20260831021556 63 321 1.0 2.0 0.00 0.05 0.05 94 1019.3
20260831021024 63 212 0.0 2.0 0.00 0.05 0.05 94 1019.1
20260831020606 63 278 0.0 2.0 0.00 0.05 0.05 94 1019.2
20260831020027 63 324 1.0 3.0 0.00 0.05 0.05 94 1019.1
20260831015530 63 336 1.0 3.0 0.00 0.05 0.05 94 1019.0
20260831015035 63 355 1.0 3.0 0.00 0.05 0.05 94 1019.0
20260831014554 63 261 1.0 3.0 0.00 0.05 0.05 94 1018.8
20260831014054 63 306 1.0 3.0 0.00 0.05 0.05 95 1018.8
20260831013556 63 308 0.0 3.0 0.00 0.05 0.05 95 1018.8
20260831013058 64 308 1.0 3.0 0.00 0.05 0.05 95 1018.6
20260831012540 64 306 0.0 2.0 0.00 0.05 0.05 95 1018.7
20260831012046 64 309 0.0 1.0 0.01 0.05 0.05 94 1018.7
20260831011552 64 309 0.0 2.0 0.01 0.05 0.05 94 1018.7
20260831011054 64 309 1.0 2.0 0.01 0.05 0.05 94 1018.6
20260831010537 64 213 0.0 0.0 0.01 0.05 0.05 94 1018.5
20260831010043 64 213 0.0 1.0 0.01 0.05 0.05 94 1018.5
20260831005528 64 213 0.0 1.0 0.01 0.05 0.05 94 1018.4
20260831005031 64 213 0.0 2.0 0.01 0.05 0.05 94 1018.5
20260831004537 64 213 0.0 2.0 0.01 0.05 0.05 93 1018.4
20260831004043 64 298 0.0 1.0 0.01 0.05 0.05 93 1018.3
20260831003543 64 298 0.0 1.0 0.01 0.05 0.05 93 1018.3
20260831003044 65 298 0.0 0.0 0.03 0.05 0.05 93 1018.2
20260831002527 65 298 0.0 0.0 0.05 0.05 0.05 92 1018.2
20260831002030 65 298 0.0 1.0 0.04 0.04 0.04 92 1018.1
20260831001535 65 298 0.0 4.0 0.04 0.04 0.04 92 1018.0
20260831001053 66 333 1.0 4.0 0.04 0.04 0.04 92 1018.0
20260831000536 66 311 0.0 2.0 0.04 0.04 0.04 93 1017.9
20260831000033 66 68 0.0 2.0 0.04 0.04 0.04 93 1017.7
20260830235535 67 68 0.0 2.0 0.04 0.04 0.04 93 1017.6
20260830235044 67 68 1.0 2.0 0.04 0.04 0.04 93 1017.5
20260830234547 67 186 0.0 1.0 0.04 0.04 0.04 92 1017.5
20260830234105 67 237 0.0 1.0 0.04 0.04 0.04 92 1017.5
20260830233547 67 275 0.0 2.0 0.04 0.04 0.04 91 1017.5
20260830233044 68 276 0.0 2.0 0.02 0.02 0.02 90 1017.5
20260830232527 68 275 0.0 1.0 0.00 0.00 0.00 88 1017.4
20260830232030 68 275 0.0 1.0 0.00 0.00 0.00 88 1017.4
20260830231556 68 275 0.0 1.0 0.00 0.00 0.00 88 1017.4
20260830231041 68 275 0.0 1.0 0.00 0.00 0.00 88 1017.5
20260830230545 68 275 0.0 1.0 0.00 0.00 0.00 87 1017.4
20260830230059 68 275 0.0 2.0 0.00 0.00 0.00 87 1017.5
20260830225541 69 275 0.0 2.0 0.00 0.00 0.00 87 1017.6
20260830225047 69 250 0.0 1.0 0.00 0.00 0.00 87 1017.6
20260830224530 69 250 0.0 1.0 0.00 0.00 0.00 86 1017.5
20260830224053 69 250 0.0 1.0 0.00 0.00 0.00 86 1017.5
20260830223538 69 250 0.0 1.0 0.00 0.00 0.00 86 1017.7
20260830223040 69 250 0.0 1.0 0.00 0.00 0.00 86 1017.8
20260830222542 69 250 0.0 0.0 0.00 0.00 0.00 86 1017.8
20260830222028 69 249 0.0 1.0 0.00 0.00 0.00 86 1017.7
20260830221536 70 251 0.0 1.0 0.00 0.00 0.00 85 1017.8
20260830221040 70 251 0.0 0.0 0.00 0.00 0.00 85 1017.6
20260830220546 70 251 0.0 1.0 0.00 0.00 0.00 85 1017.6
20260830220028 70 251 0.0 0.0 0.00 0.00 0.00 85 1017.6
20260830215532 70 250 0.0 0.0 0.00 0.00 0.00 85 1017.6
20260830215036 70 251 0.0 1.0 0.00 0.00 0.00 85 1017.7
20260830214559 70 251 0.0 1.0 0.00 0.00 0.00 84 1017.7
20260830214042 70 251 0.0 0.0 0.00 0.00 0.00 83 1017.7
20260830213551 70 251 0.0 4.0 0.00 0.00 0.00 83 1017.8
20260830213037 70 252 1.0 4.0 0.00 0.00 0.00 83 1017.8
20260830212545 70 305 0.0 1.0 0.00 0.00 0.00 83 1017.8
20260830212049 70 305 0.0 2.0 0.00 0.00 0.00 82 1017.8
20260830211534 70 351 1.0 2.0 0.00 0.00 0.00 83 1017.8
20260830211053 70 207 1.0 2.0 0.00 0.00 0.00 83 1017.9
20260830210538 71 47 0.0 2.0 0.00 0.00 0.00 83 1017.8
20260830210043 71 129 0.0 2.0 0.00 0.00 0.00 83 1017.9
20260830205527 71 279 0.0 2.0 0.00 0.00 0.00 83 1017.9
20260830205030 71 5 0.0 2.0 0.00 0.00 0.00 82 1017.9
20260830204541 71 49 0.0 2.0 0.00 0.00 0.00 81 1017.9
20260830204025 71 345 0.0 2.0 0.00 0.00 0.00 82 1018.0
20260830203545 71 343 0.0 2.0 0.00 0.00 0.00 82 1018.0
20260830203027 71 355 0.0 3.0 0.00 0.00 0.00 81 1018.0
20260830202529 71 355 2.0 3.0 0.00 0.00 0.00 80 1018.0
20260830202031 71 71 1.0 3.0 0.00 0.00 0.00 79 1018.1
20260830201549 71 346 0.0 3.0 0.00 0.00 0.00 79 1018.1
20260830201051 71 225 0.0 3.0 0.00 0.00 0.00 80 1018.2
20260830200551 71 225 1.0 4.0 0.00 0.00 0.00 78 1018.2
20260830200052 71 190 1.0 3.0 0.00 0.00 0.00 80 1018.1
20260830195555 72 109 1.0 3.0 0.00 0.00 0.00 77 1018.1
20260830195037 72 11 0.0 4.0 0.00 0.00 0.00 77 1018.3
20260830194543 72 344 0.0 4.0 0.00 0.00 0.00 78 1018.4
20260830194032 72 229 2.0 4.0 0.00 0.00 0.00 77 1018.3
20260830193536 72 191 2.0 3.0 0.00 0.00 0.00 79 1018.3
20260830193037 72 253 0.0 4.0 0.00 0.00 0.00 78 1018.5
20260830192540 72 104 0.0 2.0 0.00 0.00 0.00 77 1018.5
20260830192118 72 104 0.0 2.0 0.00 0.00 0.00 78 1018.5
20260830191543 72 113 0.0 3.0 0.00 0.00 0.00 77 1018.6
20260830191052 71 113 1.0 3.0 0.00 0.00 0.00 76 1018.7
20260830190600 71 293 0.0 4.0 0.00 0.00 0.00 77 1018.8
20260830190044 71 14 1.0 4.0 0.00 0.00 0.00 76 1018.9
20260830185543 71 211 0.0 2.0 0.00 0.00 0.00 77 1018.9
20260830185025 71 219 0.0 2.0 0.00 0.00 0.00 77 1018.8
20260830184529 72 192 0.0 2.0 0.00 0.00 0.00 76 1019.0
20260830184032 72 162 1.0 3.0 0.00 0.00 0.00 73 1019.1
20260830183612 72 153 2.0 3.0 0.00 0.00 0.00 71 1019.1
20260830183051 72 156 1.0 2.0 0.00 0.00 0.00 71 1019.1
20260830182600 73 138 1.0 2.0 0.00 0.00 0.00 70 1019.1
20260830182044 73 164 0.0 2.0 0.00 0.00 0.00 71 1019.2
20260830181547 73 42 0.0 4.0 0.00 0.00 0.00 71 1019.2
20260830181030 73 323 1.0 4.0 0.00 0.00 0.00 70 1019.3
20260830180612 73 271 1.0 3.0 0.00 0.00 0.00 72 1019.4
20260830180052 73 318 0.0 2.0 0.00 0.00 0.00 70 1019.4
20260830175550 73 161 0.0 2.0 0.00 0.00 0.00 68 1019.4
20260830175055 73 161 1.0 3.0 0.00 0.00 0.00 70 1019.3
20260830174557 73 155 1.0 3.0 0.00 0.00 0.00 68 1019.3
20260830174042 73 269 1.0 3.0 0.00 0.00 0.00 70 1019.4
20260830173546 73 225 1.0 3.0 0.00 0.00 0.00 72 1019.4
20260830173027 72 112 0.0 2.0 0.00 0.00 0.00 72 1019.4
20260830172530 72 112 0.0 2.0 0.00 0.00 0.00 70 1019.4
20260830172030 71 182 0.0 2.0 0.00 0.00 0.00 69 1019.5
20260830171533 71 28 0.0 1.0 0.00 0.00 0.00 72 1019.5
20260830171038 71 36 0.0 2.0 0.00 0.00 0.00 74 1019.6
20260830170557 71 38 0.0 2.0 0.00 0.00 0.00 71 1019.6
20260830170032 71 355 1.0 4.0 0.00 0.00 0.00 67 1019.8
20260830165538 71 229 1.0 3.0 0.00 0.00 0.00 70 1020.0
20260830165056 71 306 0.0 2.0 0.00 0.00 0.00 71 1020.0
20260830164531 71 351 0.0 3.0 0.00 0.00 0.00 72 1020.0
20260830164030 71 346 0.0 3.0 0.00 0.00 0.00 70 1020.0
20260830163552 71 124 1.0 2.0 0.00 0.00 0.00 67 1020.1
20260830163055 71 105 1.0 3.0 0.00 0.00 0.00 70 1020.2
20260830162538 71 228 1.0 3.0 0.00 0.00 0.00 68 1020.2
20260830162042 71 227 1.0 4.0 0.00 0.00 0.00 71 1020.3
20260830161532 71 304 1.0 4.0 0.00 0.00 0.00 71 1020.3
20260830161038 70 271 1.0 2.0 0.00 0.00 0.00 76 1020.3
20260830160544 70 355 0.0 2.0 0.00 0.00 0.00 76 1020.3
20260830160026 70 5 0.0 2.0 0.00 0.00 0.00 76 1020.3
20260830155530 70 94 0.0 2.0 0.00 0.00 0.00 78 1020.2
20260830155034 70 94 0.0 2.0 0.00 0.00 0.00 73 1020.4
20260830154537 69 32 0.0 2.0 0.00 0.00 0.00 76 1020.4
20260830154057 69 5 0.0 2.0 0.00 0.00 0.00 77 1020.5
20260830153528 69 5 0.0 2.0 0.00 0.00 0.00 76 1020.6
20260830153027 69 348 0.0 2.0 0.00 0.00 0.00 79 1020.6
20260830152534 69 355 0.0 2.0 0.00 0.00 0.00 74 1020.7
20260830152053 68 62 0.0 2.0 0.00 0.00 0.00 77 1020.7
20260830151536 68 59 0.0 2.0 0.00 0.00 0.00 77 1020.7
20260830151044 68 342 0.0 2.0 0.00 0.00 0.00 81 1020.7
20260830150529 68 342 0.0 2.0 0.00 0.00 0.00 81 1020.9
20260830150048 67 342 0.0 1.0 0.00 0.00 0.00 79 1020.8
20260830145531 67 342 0.0 1.0 0.00 0.00 0.00 79 1020.8
20260830145038 67 342 0.0 2.0 0.00 0.00 0.00 81 1021.1
20260830144542 67 269 0.0 3.0 0.00 0.00 0.00 78 1021.1
20260830144025 67 285 0.0 3.0 0.00 0.00 0.00 84 1021.2
20260830143530 66 323 1.0 3.0 0.00 0.00 0.00 81 1021.1
20260830143035 65 351 0.0 2.0 0.00 0.00 0.00 82 1021.2
20260830142536 65 22 0.0 0.0 0.00 0.00 0.00 86 1021.1
20260830142056 65 22 0.0 1.0 0.00 0.00 0.00 85 1021.1
20260830141542 65 22 0.0 1.0 0.00 0.00 0.00 84 1021.0
20260830141026 65 22 0.0 1.0 0.00 0.00 0.00 84 1021.1
20260830140533 65 22 0.0 2.0 0.00 0.00 0.00 83 1021.1
20260830140039 65 340 0.0 2.0 0.00 0.00 0.00 81 1021.1
20260830135525 65 342 0.0 2.0 0.00 0.00 0.00 83 1021.1
20260830135104 64 350 0.0 2.0 0.00 0.00 0.00 85 1021.1
20260830134538 64 348 1.0 2.0 0.00 0.00 0.00 89 1021.2
20260830134056 64 29 0.0 2.0 0.00 0.00 0.00 89 1021.3
20260830133559 63 286 0.0 2.0 0.00 0.00 0.00 92 1021.3
20260830133025 62 286 0.0 1.0 0.00 0.00 0.00 92 1021.4
20260830132543 62 286 0.0 1.0 0.00 0.00 0.00 94 1021.3
20260830132049 62 286 0.0 0.0 0.00 0.00 0.00 94 1021.4
20260830131548 62 286 0.0 0.0 0.00 0.00 0.00 94 1021.4
20260830131031 62 286 0.0 0.0 0.00 0.00 0.00 94 1021.4
20260830130533 61 286 0.0 0.0 0.00 0.00 0.00 95 1021.4
20260830130035 61 286 0.0 0.0 0.00 0.00 0.00 95 1021.5
20260830125538 61 286 0.0 0.0 0.00 0.00 0.00 95 1021.5
20260830125034 60 286 0.0 0.0 0.00 0.00 0.00 95 1021.6
20260830124538 60 286 0.0 0.0 0.00 0.00 0.00 96 1021.7
20260830124036 59 286 0.0 0.0 0.00 0.00 0.00 96 1021.9
20260830123526 59 286 0.0 0.0 0.00 0.00 0.00 97 1021.9
20260830123051 58 288 0.0 0.0 0.00 0.00 0.00 97 1022.0
20260830122549 58 288 0.0 0.0 0.00 0.00 0.00 97 1022.0
20260830122030 58 288 0.0 1.0 0.00 0.00 0.00 97 1022.0
20260830121532 57 288 0.0 1.0 0.00 0.00 0.00 97 1021.9
20260830121050 57 285 0.0 0.0 0.00 0.00 0.00 97 1022.0
20260830120549 56 227 0.0 0.0 0.00 0.00 0.00 97 1022.0
20260830120050 56 220 0.0 0.0 0.00 0.00 0.00 96 1021.9
20260830115539 56 218 0.0 0.0 0.00 0.00 0.00 96 1022.0
20260830115105 55 217 0.0 0.0 0.00 0.00 0.00 96 1021.9
20260830114550 55 215 0.0 0.0 0.00 0.00 0.00 96 1021.9
20260830114032 55 215 0.0 0.0 0.00 0.00 0.00 96 1021.9
20260830113607 54 214 0.0 0.0 0.00 0.00 0.00 96 1022.0
20260830113050 54 214 0.0 0.0 0.00 0.00 0.00 96 1022.0
20260830112536 54 214 0.0 0.0 0.00 0.00 0.00 96 1022.2
20260830112038 54 213 0.0 0.0 0.00 0.00 0.00 96 1022.2
20260830111544 54 213 0.0 0.0 0.00 0.00 0.00 96 1022.1
20260830111030 54 202 0.0 0.0 0.00 0.00 0.00 96 1022.0
20260830110534 54 200 0.0 0.0 0.00 0.00 0.00 96 1022.0
20260830110035 54 200 0.0 0.0 0.00 0.00 0.00 95 1022.1
20260830105538 54 200 0.0 0.0 0.00 0.00 0.00 95 1022.1
20260830105041 54 200 0.0 0.0 0.00 0.00 0.00 96 1022.1
20260830104527 54 200 0.0 0.0 0.00 0.00 0.00 95 1022.1
20260830104033 54 200 0.0 0.0 0.00 0.00 0.00 95 1022.0
20260830103537 54 200 0.0 0.0 0.00 0.00 0.00 95 1022.0
20260830103039 54 200 0.0 0.0 0.00 0.00 0.00 95 1021.9
20260830102525 54 200 0.0 0.0 0.00 0.00 0.00 95 1021.9
20260830102119 54 200 0.0 0.0 0.00 0.00 0.00 95 1022.0
20260830101600 54 200 0.0 0.0 0.00 0.00 0.00 95 1021.8
20260830101045 54 200 0.0 0.0 0.00 0.00 0.00 95 1021.9
20260830100532 54 200 0.0 0.0 0.00 0.00 0.00 95 1022.0
20260830100034 54 200 0.0 0.0 0.00 0.00 0.00 95 1021.9
20260830095533 54 200 0.0 0.0 0.00 0.00 0.00 95 1021.9
20260830095035 54 200 0.0 0.0 0.00 0.00 0.00 95 1021.9
20260830094524 54 200 0.0 0.0 0.00 0.00 0.00 95 1021.9
20260830094028 54 200 0.0 0.0 0.00 0.00 0.00 95 1022.0
20260830093547 54 200 0.0 0.0 0.00 0.00 0.00 95 1022.0
20260830093052 54 200 0.0 0.0 0.00 0.00 0.00 96 1022.1
20260830092555 54 200 0.0 0.0 0.00 0.00 0.00 95 1022.0
20260830092036 54 200 0.0 0.0 0.00 0.00 0.00 95 1022.0
20260830091541 54 200 0.0 0.0 0.00 0.00 0.00 95 1022.0
20260830091050 54 200 0.0 0.0 0.00 0.00 0.00 95 1022.1
20260830090600 54 200 0.0 0.0 0.00 0.00 0.00 95 1022.1
20260830085526 54 200 0.0 0.0 0.00 0.00 0.00 96 1022.2
20260830085032 54 200 0.0 0.0 0.00 0.00 0.00 96 1022.2
20260830084535 53 200 0.0 0.0 0.00 0.00 0.00 96 1022.3
20260830084054 53 200 0.0 0.0 0.00 0.00 0.00 95 1022.3
20260830083551 53 200 0.0 0.0 0.00 0.00 0.00 96 1022.3
20260830083058 53 200 0.0 0.0 0.00 0.00 0.00 96 1022.3
20260830082524 53 200 0.0 0.0 0.00 0.00 0.00 96 1022.2
20260830082048 53 200 0.0 0.0 0.00 0.00 0.00 96 1022.0
20260830081551 53 200 0.0 0.0 0.00 0.00 0.00 96 1021.9
20260830081053 53 200 0.0 0.0 0.00 0.00 0.00 96 1021.9
20260830080536 53 200 0.0 0.0 0.00 0.00 0.00 96 1021.9
20260830080037 53 200 0.0 0.0 0.00 0.00 0.00 96 1022.0
20260830075529 53 200 0.0 0.0 0.00 0.00 0.00 96 1021.9
20260830075032 53 200 0.0 0.0 0.00 0.00 0.00 96 1022.0
20260830074538 53 200 0.0 0.0 0.00 0.00 0.00 96 1022.0
20260830074041 53 200 0.0 0.0 0.00 0.00 0.00 96 1022.0
20260830073620 53 200 0.0 0.0 0.00 0.00 0.00 96 1022.0
20260830073025 53 200 0.0 0.0 0.00 0.00 0.00 96 1022.0
20260830072543 52 200 0.0 0.0 0.00 0.00 0.00 95 1021.9
20260830072051 52 200 0.0 0.0 0.00 0.00 0.00 95 1022.0
20260830071554 52 200 0.0 0.0 0.00 0.00 0.00 95 1022.1
20260830071057 52 200 0.0 0.0 0.00 0.00 0.00 95 1022.3
20260830070539 52 200 0.0 0.0 0.00 0.00 0.00 95 1022.3
20260830070040 52 200 0.0 0.0 0.00 0.00 0.00 95 1022.3
20260830065542 52 200 0.0 0.0 0.00 0.00 0.00 95 1022.3
20260830065025 52 200 0.0 0.0 0.00 0.00 0.00 95 1022.3
20260830064528 52 200 0.0 0.0 0.00 0.00 0.00 95 1022.3
20260830064031 52 200 0.0 0.0 0.00 0.00 0.00 95 1022.3
20260830063611 52 200 0.0 0.0 0.00 0.00 0.00 95 1022.4
20260830063032 52 200 0.0 0.0 0.00 0.00 0.00 95 1022.4
20260830062533 52 200 0.0 0.0 0.00 0.00 0.00 95 1022.3
20260830062039 52 200 0.0 0.0 0.00 0.00 0.00 95 1022.2
20260830061542 52 200 0.0 0.0 0.00 0.00 0.00 95 1022.1
20260830061045 52 200 0.0 0.0 0.00 0.00 0.00 95 1022.0
20260830060548 52 200 0.0 0.0 0.00 0.00 0.00 95 1021.9
20260830060044 52 200 0.0 0.0 0.00 0.00 0.00 95 1021.9
20260830055546 52 200 0.0 0.0 0.00 0.00 0.00 95 1021.9
20260830055028 52 200 0.0 0.0 0.00 0.00 0.00 95 1021.9
20260830054534 52 200 0.0 0.0 0.00 0.00 0.00 95 1021.9
20260830054037 52 200 0.0 0.0 0.00 0.00 0.00 95 1021.9
20260830053619 52 200 0.0 0.0 0.00 0.00 0.00 95 1022.0
20260830053027 52 200 0.0 0.0 0.00 0.00 0.00 95 1022.0
20260830052526 52 200 0.0 0.0 0.00 0.00 0.00 95 1022.1
20260830052029 52 200 0.0 0.0 0.00 0.00 0.00 95 1022.2
20260830051550 52 200 0.0 0.0 0.00 0.00 0.00 95 1022.2
20260830051057 52 200 0.0 0.0 0.00 0.00 0.00 95 1022.3
20260830050543 52 200 0.0 0.0 0.00 0.00 0.00 95 1022.3
20260830050024 52 200 0.0 0.0 0.00 0.00 0.00 95 1022.4
20260830045527 52 200 0.0 0.0 0.00 0.00 0.00 95 1022.4
20260830045030 52 200 0.0 0.0 0.00 0.00 0.00 95 1022.4
20260830044533 52 200 0.0 0.0 0.00 0.00 0.00 95 1022.5
20260830044056 52 200 0.0 1.0 0.00 0.00 0.00 95 1022.4
20260830043554 52 200 0.0 1.0 0.00 0.00 0.00 95 1022.5
20260830043056 52 200 0.0 0.0 0.00 0.00 0.00 95 1022.5
20260830042538 52 200 0.0 1.0 0.00 0.00 0.00 95 1022.5
20260830042024 52 200 0.0 1.0 0.00 0.00 0.00 95 1022.4
20260830041603 52 200 0.0 0.0 0.00 0.00 0.00 94 1022.3
20260830041028 52 200 0.0 0.0 0.00 0.00 0.00 94 1022.3
20260830040536 53 200 0.0 0.0 0.00 0.00 0.00 94 1022.2
20260830040036 53 200 0.0 0.0 0.00 0.00 0.00 94 1022.2
20260830035556 53 200 0.0 0.0 0.00 0.00 0.00 94 1022.3
20260830035059 53 200 0.0 0.0 0.00 0.00 0.00 94 1022.3
20260830034537 53 200 0.0 0.0 0.00 0.00 0.00 94 1022.3
20260830034040 53 200 0.0 0.0 0.00 0.00 0.00 94 1022.3
20260830033544 53 200 0.0 0.0 0.00 0.00 0.00 94 1022.3